Skip Page Navigation
NASA JPL Caltech
NASA Logo - Jet Propulsion Laboratory + View the NASA Portal
+ Center for Near-Earth Object Studies
JPL Home Earth Solar System Stars & Galaxies Technology
JPL Solar System Dynamics
BODIES ORBITS EPHEMERIDES TOOLS PHYSICAL DATA DISCOVERY FAQ SITE MAP
JPL Small-Body Database Browser
Search: [ help ]  
233972 (1992 PZ5)
Classification: Mars-crossing Asteroid          SPK-ID: 2233972
Ephemeris | Orbit Diagram | Orbital Elements | Mission Design | Physical Parameters | Discovery Circumstances | Close-Approach Data ]

[ show orbit diagram ]
Orbital Elements at Epoch 2459000.5 (2020-May-31.0) TDB
Reference: JPL 15 (heliocentric ecliptic J2000)
 Element Value Uncertainty (1-sigma)   Units 
e .356784694326033 9.2449e-08  
a 2.123971737918769 1.9027e-08 au
q 1.366171130648288 1.8669e-07 au
i 6.283497735530974 5.2043e-06 deg
node 342.61853481272 4.3269e-05 deg
peri 311.4444909058124 4.9316e-05 deg
M 7.146227782213334 4.4067e-05 deg
tp 2458978.056226276587
(2020-May-08.55622628)
0.00013815 TDB
period 1130.632661967337
3.10
1.5192e-05
4.159e-08
d
yr
n .318405802441253 4.2784e-09 deg/d
Q 2.88177234518925 2.5815e-08 au
  Orbit Determination Parameters
   # obs. used (total)      356  
   data-arc span      9685 days (26.52 yr)  
   first obs. used      1992-08-03  
   last obs. used      2019-02-08  
   planetary ephem.      DE431  
   SB-pert. ephem.      SB431-N16  
   condition code      0  
   norm. resid. RMS      .57818  
   source      ORB  
   producer      Otto Matic  
   solution date      2020-Feb-25 07:26:12  

Additional Information
 Earth MOID = .362747 au 
 Jupiter MOID = 2.36593 au 
 T_jup = 3.636 
[ show covariance matrix ]

Ephemeris | Orbit Diagram | Orbital Elements | Mission Design | Physical Parameters | Discovery Circumstances | Close-Approach Data ]

Physical Parameter Table
Parameter Symbol Value Units Sigma Reference Notes
absolute magnitude H 16.8   n/a MPO470491  

233972 (1992 PZ5)          Discovered 1992-Aug-03 by Holt, H. E. at Palomar
Reference: 20100330/Numbers.arcLast Updated: 2010-04-05

[ show close-approach data ]
Alternate Designations
 1992 PZ5 = 1992 QQ = 2001 FV32 
Ephemeris | Orbit Diagram | Orbital Elements | Mission Design | Physical Parameters | Discovery Circumstances | Close-Approach Data ]
ABOUT SSD CREDITS/AWARDS PRIVACY/COPYRIGHT GLOSSARY LINKS
FirstGov 2020-Jul-10 20:21 UT
(server date/time)  
NASA Home Page
Site Manager:   Ryan S. Park
Webmaster  Alan B. Chamberlin